Flag for Germany Weather past 2 weeks in Jena, Thuringia, Germany

Now
45 °F

Scattered showers. Scattered clouds.


Feels Like: 35 °F
Forecast: 38 / 50 °F
Wind: 30 mph from West

Location: Erfurt-Bindersleben

Current Time: Mar 30, 2015 at 12:03:08 PM

Latest Report: Mar 30, 2015 at 11:20 AM


Visibility: N/A

Pressure: 29.47 "Hg

Humidity: 53%

Dew point: 28 °F

Location of JenaLocation

Historic Weather in Jena — Graph

°F

Jena temperature yesterday

Maximum temperature yesterday: 52 °F (at 9:50 AM)
Minimum temperature yesterday: 43 °F (at 11:20 PM)
Average temperature yesterday: 48 °F

Past Weeks' High & Low Weather Summary

 TemperatureHumidityPressure
High63 °F (Mar 25, 3:50 PM)100% (Mar 15, 9:20 AM)30.33 "Hg (Mar 15, 9:20 AM)
Low27 °F (Mar 20, 5:50 AM)30% (Mar 20, 2:50 PM)29.21 "Hg (Mar 29, 10:50 PM)
Average42 °F78%30.01 "Hg
* Reported Mar 15 9:20 AM — Mar 30 10:50 AM, Jena, Weather by CustomWeather, © 2015

Note: Actual official high and low records may vary slightly from our data, if they occured in-between our weather recording intervals... More about our weather records

Advertising

Jena weather history for previous 24 hours

 ConditionsComfort  
Time TempWeatherWind HumidityBarometerVisibility
10:50 AM
Mon, Mar 30
43 °FScattered clouds.24 mph61%29.45 "HgN/A
10:20 AM43 °FScattered clouds.23 mph71%29.45 "HgN/A
9:50 AM43 °FScattered clouds.26 mph71%29.42 "HgN/A
9:20 AM41 °FPassing clouds.28 mph76%29.42 "HgN/A
8:50 AM41 °FPassing clouds.26 mph76%29.39 "HgN/A
8:20 AM39 °FPassing clouds.26 mph81%29.39 "HgN/A
7:50 AM39 °FPassing clouds.24 mph81%29.39 "HgN/A
7:20 AM39 °FPassing clouds.26 mph81%29.36 "HgN/A
6:50 AM39 °FPassing clouds.21 mph87%29.36 "HgN/A
6:20 AM39 °FSprinkles. Passing clouds.24 mph93%29.36 "HgN/A
5:50 AM41 °FLight rain. Partly cloudy.18 mph81%29.33 "HgN/A
5:20 AM41 °FLight rain. Passing clouds.21 mph81%29.33 "HgN/A
4:50 AM41 °FPassing clouds.18 mph81%29.33 "HgN/A
4:20 AM43 °FPassing clouds.18 mph76%29.33 "HgN/A
3:50 AM43 °FPartly cloudy.17 mph81%29.33 "HgN/A
3:20 AM43 °FPartly cloudy.20 mph76%29.36 "HgN/A
2:50 AM43 °FPartly cloudy.21 mph76%29.36 "HgN/A
2:20 AM43 °FPartly cloudy.22 mph81%29.33 "HgN/A
1:50 AM45 °FPassing clouds.24 mph76%29.30 "HgN/A
1:20 AM45 °FPassing clouds.25 mph76%29.30 "HgN/A
12:50 AM45 °FPassing clouds.24 mph81%29.27 "HgN/A
12:20 AM45 °FPassing clouds.22 mph81%29.27 "HgN/A
11:50 PM
Sun, Mar 29
45 °FLight rain. Clear.26 mph81%29.27 "HgN/A
11:20 PM43 °FSprinkles. Partly cloudy.36 mph93%29.27 "HgN/A
10:50 PM48 °FSprinkles. Passing clouds.28 mph87%29.21 "HgN/A
10:20 PM48 °FLight rain. Mostly cloudy.23 mph94%29.24 "HgN/A
9:50 PM50 °FSprinkles. Passing clouds.21 mph88%29.24 "HgN/A
9:20 PM50 °FLight rain. Mostly cloudy.24 mph88%29.24 "HgN/A
8:50 PM50 °FLight rain. Mostly cloudy.25 mph88%29.27 "HgN/A
8:20 PM48 °FLight rain. Mostly cloudy.23 mph87%29.27 "HgN/A
7:50 PM48 °FLight rain. Mostly cloudy.21 mph87%29.30 "HgN/A
7:20 PM48 °FLight rain. Partly sunny.21 mph87%29.33 "HgN/A
6:50 PM50 °FLight rain. Partly sunny.20 mph82%29.36 "HgN/A
6:20 PM50 °FLight rain. Partly sunny.21 mph82%29.39 "HgN/A
5:50 PM50 °FLight rain. Partly sunny.21 mph82%29.42 "HgN/A
5:20 PM48 °FLight rain. Mostly cloudy.20 mph87%29.42 "HgN/A
4:50 PM48 °FLight rain. More clouds than sun.18 mph87%29.45 "HgN/A
4:20 PM48 °FLight rain. More clouds than sun.20 mph87%29.47 "HgN/A
3:50 PM48 °FLight rain. More clouds than sun.21 mph87%29.50 "HgN/A
3:20 PM48 °FLight rain. More clouds than sun.21 mph87%29.50 "HgN/A
2:50 PM48 °FLight rain. More clouds than sun.20 mph87%29.53 "HgN/A
2:20 PM48 °FLight rain. More clouds than sun.17 mph87%29.56 "HgN/A
1:50 PM48 °FLight rain. Mostly cloudy.18 mph82%29.56 "HgN/A
1:20 PM48 °FLight rain. More clouds than sun.25 mph82%29.59 "HgN/A
12:50 PM50 °FLight rain. More clouds than sun.21 mph76%29.59 "HgN/A
12:20 PM50 °FLight rain. Broken clouds.16 mph82%29.59 "HgN/A
Weather by CustomWeather, © 2015

See weather overviewHow to use our weather pages